Rugby, ND

9:29 PM CST on December 14, 2019 (GMT -0600)
Rugby Municipal

Weather History for KRUG - October, 2019

Change the Weather History Date:

Wednesday, October 16, 2019

  Actual Average Record
Temperature  
Mean Temperature 35 °F -  
Max Temperature 42 °F 54 °F 82 °F (1961)
Min Temperature 28 °F 31 °F 13 °F (1992)
Degree Days  
Heating Degree Days 30    
Moisture  
Dew Point 34 °F    
Average Humidity 93    
Maximum Humidity 100    
Minimum Humidity 76    
Precipitation  
Precipitation 0.00 in - - ()
Sea Level Pressure  
Sea Level Pressure 30.01 in    
Wind  
Wind Speed 7 mph (SSE)    
Max Wind Speed 18 mph    
Max Gust Speed 24 mph    
Visibility 10 miles    
Events      
Averages and records for this station are not official NWS values.
T = Trace of Precipitation, MM = Missing Value Source: NWS Daily Summary

Daily Weather History Graph

Daily Weather History Graph

Search for Another Location

Airport or City:

Astronomy

Oct. 16, 2019 Rise Set
Actual Time 8:01 AM CDT 6:49 PM CDT
Civil Twilight 7:29 AM CDT 7:20 PM CDT
Nautical Twilight 6:53 AM CDT 7:57 PM CDT
Astronomical Twilight 6:16 AM CDT 8:33 PM CDT
Moon 8:32 PM CDT (10/16) 10:43 AM CDT (10/16)
Length of Visible Light 11h 51m
Length of Day
10h 48m
Waning Gibbous, 92% of the Moon is Illuminated
Oct 16
Waning Gibbous
Oct 21
Last Quarter
Oct 27
New
Nov 4
First Quarter
Nov 12
Full

Hourly Weather History & Observations

Time (CDT) Temp. Windchill Dew Point Humidity Pressure Visibility Wind Dir Wind Speed Gust Speed Precip Events Conditions
12:15 AM 35.6 °F 30.7 °F 33.8 °F 93% 30.19 in 10.0 mi WNW 5.8 mph - N/A   Overcast
12:35 AM 35.6 °F 32.8 °F 33.8 °F 93% 30.18 in 10.0 mi NNE 3.5 mph - N/A   Overcast
12:55 AM 33.8 °F 30.8 °F 32.0 °F 93% 30.17 in 10.0 mi NNE 3.5 mph - N/A   Overcast
1:15 AM 33.8 °F - 32.0 °F 93% 30.18 in 10.0 mi Calm Calm - N/A   Overcast
1:35 AM 33.8 °F - 32.0 °F 93% 30.17 in 10.0 mi Calm Calm - N/A   Overcast
1:55 AM 32.0 °F 27.5 °F 32.0 °F 100% 30.17 in 10.0 mi West 4.6 mph - N/A   Overcast
2:15 AM 32.0 °F 27.5 °F 32.0 °F 100% 30.17 in 10.0 mi WSW 4.6 mph - N/A   Overcast
2:35 AM 32.0 °F 28.7 °F 32.0 °F 100% 30.17 in 10.0 mi WSW 3.5 mph - N/A   Overcast
2:55 AM 32.0 °F - 32.0 °F 100% 30.16 in 10.0 mi Calm Calm - N/A   Overcast
3:15 AM 32.0 °F - 32.0 °F 100% 30.16 in 10.0 mi Calm Calm - N/A   Overcast
3:35 AM 32.0 °F 27.5 °F 32.0 °F 100% 30.16 in 10.0 mi SSW 4.6 mph - N/A   Overcast
3:55 AM 32.0 °F 28.7 °F 32.0 °F 100% 30.15 in 10.0 mi South 3.5 mph - N/A   Mostly Cloudy
4:15 AM 32.0 °F - 32.0 °F 100% 30.15 in 10.0 mi Calm Calm - N/A   Clear
4:35 AM - - - N/A% 30.14 in 10.0 mi South 4.6 mph - N/A   Clear
4:55 AM 30.2 °F 25.4 °F 30.2 °F 100% 30.14 in 10.0 mi South 4.6 mph - N/A   Clear
5:35 AM 28.4 °F 23.3 °F 28.4 °F 100% 30.13 in 10.0 mi SE 4.6 mph - N/A   Clear
5:55 AM 28.4 °F 23.3 °F 28.4 °F 100% 30.12 in 10.0 mi SSE 4.6 mph - N/A   Clear
6:15 AM 30.2 °F 25.4 °F 30.2 °F 100% 30.11 in 10.0 mi SSE 4.6 mph - N/A   Clear
6:35 AM 30.2 °F 24.3 °F 30.2 °F 100% 30.11 in 10.0 mi SSE 5.8 mph - N/A   Clear
6:55 AM 28.4 °F 23.3 °F 28.4 °F 100% 30.10 in 10.0 mi SSE 4.6 mph - N/A   Clear
7:15 AM 28.4 °F 23.3 °F 28.4 °F 100% 30.11 in 10.0 mi South 4.6 mph - N/A   Clear
7:35 AM 30.2 °F 24.3 °F 30.2 °F 100% 30.11 in 10.0 mi South 5.8 mph - N/A   Scattered Clouds
7:55 AM 30.2 °F 23.4 °F 30.2 °F 100% 30.09 in 10.0 mi SSE 6.9 mph - N/A   Scattered Clouds
8:15 AM 32.0 °F 26.4 °F 32.0 °F 100% 30.09 in 10.0 mi SSE 5.8 mph - N/A   Clear
8:35 AM 32.0 °F 27.5 °F 32.0 °F 100% 30.08 in 10.0 mi South 4.6 mph - N/A   Clear
9:15 AM 32.0 °F 27.5 °F 32.0 °F 100% 30.09 in 10.0 mi South 4.6 mph - N/A   Clear
9:35 AM 32.0 °F 26.4 °F 32.0 °F 100% 30.09 in 10.0 mi South 5.8 mph - N/A   Clear
9:55 AM 33.8 °F 28.6 °F 32.0 °F 93% 30.10 in 10.0 mi South 5.8 mph - N/A   Clear
10:15 AM 33.8 °F 28.6 °F 32.0 °F 93% 30.09 in 10.0 mi South 5.8 mph - N/A   Clear
10:35 AM 33.8 °F 27.7 °F 33.8 °F 100% 30.08 in 10.0 mi SSE 6.9 mph - N/A   Clear
10:55 AM 35.6 °F 29.2 °F 33.8 °F 93% 30.08 in 10.0 mi SSE 8.1 mph - N/A   Clear
12:15 PM 35.6 °F 27.1 °F 33.8 °F 93% 30.03 in 10.0 mi SSE 12.7 mph - N/A   Clear
12:35 PM 35.6 °F 26.2 °F 33.8 °F 93% 30.02 in 9.0 mi SSE 15.0 mph - N/A   Clear
12:55 PM 35.6 °F 26.6 °F 33.8 °F 93% 30.01 in 9.0 mi SSE 13.8 mph - N/A   Partly Cloudy
1:15 PM 37.4 °F 29.3 °F 33.8 °F 87% 30.01 in 10.0 mi SSE 12.7 mph - N/A   Clear
1:35 PM 39.2 °F 31.6 °F 33.8 °F 81% 29.99 in 10.0 mi SSE 12.7 mph - N/A   Clear
1:55 PM 39.2 °F 31.6 °F 33.8 °F 81% 29.98 in 10.0 mi SSE 12.7 mph 18.4 mph N/A   Clear
2:15 PM 41.0 °F 32.8 °F 35.6 °F 81% 29.96 in 10.0 mi SSE 16.1 mph - N/A   Clear
2:35 PM 41.0 °F 33.9 °F 35.6 °F 81% 29.96 in 10.0 mi SSE 12.7 mph 19.6 mph N/A   Clear
2:55 PM 41.0 °F 32.8 °F 35.6 °F 81% 29.96 in 10.0 mi SSE 16.1 mph - N/A   Clear
3:15 PM 41.0 °F 32.8 °F 35.6 °F 81% 29.93 in 10.0 mi SSE 16.1 mph - N/A   Clear
3:35 PM 41.0 °F 32.5 °F 35.6 °F 81% 29.92 in 10.0 mi SSE 17.3 mph - N/A   Partly Cloudy
3:55 PM 42.8 °F 34.5 °F 35.6 °F 76% 29.91 in 10.0 mi SSE 18.4 mph 24.2 mph N/A   Clear
4:15 PM 42.8 °F 34.8 °F 35.6 °F 76% 29.90 in 10.0 mi SSE 17.3 mph - N/A   Clear
4:35 PM 42.8 °F 35.1 °F 35.6 °F 76% 29.90 in 10.0 mi SSE 16.1 mph - N/A   Clear
4:55 PM 42.8 °F 35.1 °F 35.6 °F 76% 29.89 in 10.0 mi SSE 16.1 mph - N/A   Clear
5:15 PM 42.8 °F 35.4 °F 35.6 °F 76% 29.89 in 10.0 mi SSE 15.0 mph - N/A   Clear
5:35 PM 42.8 °F 35.4 °F 35.6 °F 76% 29.89 in 10.0 mi South 15.0 mph - N/A   Clear
5:55 PM 42.8 °F 37.0 °F 35.6 °F 76% 29.90 in 10.0 mi South 10.4 mph - N/A   Clear
6:15 PM 41.0 °F 34.3 °F 35.6 °F 81% 29.89 in 10.0 mi SSE 11.5 mph - N/A   Clear
6:35 PM 41.0 °F 34.3 °F 35.6 °F 81% 29.88 in 10.0 mi SSE 11.5 mph - N/A   Clear
6:55 PM 39.2 °F 32.0 °F 35.6 °F 87% 29.88 in 10.0 mi SSE 11.5 mph - N/A   Clear
7:15 PM 37.4 °F 29.8 °F 35.6 °F 93% 29.87 in 10.0 mi SE 11.5 mph - N/A   Clear
7:35 PM 37.4 °F 29.8 °F 35.6 °F 93% 29.87 in 10.0 mi SE 11.5 mph - N/A   Clear
7:55 PM 37.4 °F 29.8 °F 35.6 °F 93% 29.87 in 10.0 mi SE 11.5 mph - N/A   Clear
8:15 PM 37.4 °F 29.3 °F 35.6 °F 93% 29.87 in 10.0 mi SE 12.7 mph - N/A   Clear
8:35 PM 37.4 °F 29.3 °F 35.6 °F 93% 29.87 in 10.0 mi SE 12.7 mph - N/A   Clear
8:55 PM 37.4 °F 29.8 °F 35.6 °F 93% 29.87 in 10.0 mi SE 11.5 mph - N/A   Clear
9:15 PM 35.6 °F 27.5 °F 35.6 °F 100% 29.86 in 10.0 mi SE 11.5 mph - N/A   Clear
9:35 PM 35.6 °F 28.0 °F 35.6 °F 100% 29.86 in 10.0 mi SE 10.4 mph - N/A   Clear
9:55 PM 35.6 °F 26.6 °F 35.6 °F 100% 29.85 in 10.0 mi SE 13.8 mph - N/A   Clear
10:15 PM 35.6 °F 27.5 °F 35.6 °F 100% 29.85 in 10.0 mi SE 11.5 mph - N/A   Clear
10:35 PM 35.6 °F 27.1 °F 35.6 °F 100% 29.85 in 10.0 mi SE 12.7 mph - N/A   Clear
10:55 PM 35.6 °F 27.5 °F 35.6 °F 100% 29.84 in 10.0 mi SE 11.5 mph - N/A   Clear
11:15 PM 35.6 °F 28.0 °F 35.6 °F 100% 29.84 in 10.0 mi SE 10.4 mph - N/A   Clear
11:35 PM 35.6 °F 28.0 °F 35.6 °F 100% 29.84 in 10.0 mi SE 10.4 mph - N/A   Clear
11:55 PM 35.6 °F 27.5 °F 35.6 °F 100% 29.84 in 10.0 mi SE 11.5 mph - N/A   Clear